Location: Falconara Alta
(43.6167°N, 13.4000°E)
Time: 09:26:39
(UTC+00:00)

Cosmos 2082 Rocket - Pass Details

Date: 09 April 2020
Orbit: 832 x 855 km, 71.0° (Epoch: 04 June)

Event Time Altitude Azimuth Distance (km) Brightness Sun altitude
Exits shadow 22:15:05 32° 328° (NNW) 1,423 3.7 -37.0°
Drops below altitude 10° 22:19:08 10° 10° (N) 2,470 5.2 -37.2°
Sets 22:21:50 0° 19° (NNE) 3,412 6.0 -37.3°
